Wind_Speed
25 28 29 27 25 26 27 26 22 18 16 15 18 22 21 21 21 21 20 18 14 13 11 11 14 15 17 16 10 8 5 6 7 4 6 4 18 18 14 18 20 17 19 13
22 24 27 26 23 22 23 21 19 17 16 17 21 24 26 26 25 23 20 16 15 15 13 11 15 18 20 21 21 15 9 6 5 5 3 4 4 7 6 11 14 21 20 15
17 15 20 22 21 20 18 20 21 17 17 19 24 26 27 26 24 21 18 18 17 16 14 13 17 18 20 19 22 23 15 15 16 10 4 1 5 8 9 10 11 13 14 13
16 19 20 21 18 15 16 23 23 21 18 20 22 27 28 26 24 23 21 20 18 16 17 17 18 19 20 21 20 23 20 19 24 18 15 17 17 9 6 9 14 18 19 18
17 22 22 19 16 16 17 24 25 23 21 20 24 25 28 27 26 23 22 21 19 19 21 21 21 20 22 23 21 23 22 24 24 21 15 14 15 15 12 8 14 16 19 24
19 23 23 16 15 17 19 24 26 25 25 24 23 29 27 28 27 26 26 25 24 22 24 25 22 21 24 24 24 25 26 26 22 21 19 19 14 17 14 11 12 14 19 17
19 21 19 16 16 18 21 23 24 25 26 27 25 30 29 31 29 29 28 27 26 27 27 26 23 22 25 26 26 25 29 31 28 27 24 22 23 21 20 17 18 13 13 17
20 18 14 16 17 18 20 21 24 27 28 28 29 31 33 33 31 31 30 29 29 28 27 26 24 23 23 27 26 26 27 31 34 33 28 24 23 26 24 25 24 16 14 19
20 17 15 17 19 18 20 22 25 25 28 29 32 34 38 36 37 35 32 31 29 28 27 26 24 25 27 27 30 31 29 31 35 36 32 28 24 20 26 31 25 23 15 12
23 20 20 19 17 16 18 20 23 26 30 32 34 37 39 37 40 37 35 34 32 32 30 29 30 31 33 33 34 37 37 36 36 38 38 33 33 24 23 31 28 28 16 25
28 26 25 20 17 16 16 18 19 21 26 30 32 34 33 37 40 40 39 39 38 38 37 37 38 40 41 43 43 43 44 44 45 41 41 41 39 37 32 34 32 31 30 35
29 30 30 27 25 22 19 18 17 18 21 26 30 34 33 33 35 39 41 41 42 43 44 45 48 47 47 47 48 48 50 51 51 51 47 44 45 45 40 37 41 45 38 39
32 35 33 34 31 28 26 25 25 25 25 26 29 32 29 29 32 36 36 38 39 41 44 46 46 46 47 48 48 50 51 52 52 53 52 50 49 47 46 42 39 49 51 53
34 36 39 39 36 34 34 32 32 32 31 31 31 32 29 28 29 32 33 36 37 39 40 41 43 44 44 46 48 48 49 50 51 48 46 48 50 53 50 50 44 45 49 53
37 39 42 42 42 39 37 36 37 36 36 36 36 35 30 29 29 30 30 33 37 38 40 41 45 45 44 46 49 52 53 52 52 50 48 48 48 46 46 48 43 46 50 55
41 42 44 44 43 42 41 40 39 36 36 35 37 36 32 29 28 28 29 30 31 33 36 39 39 40 41 43 44 46 51 54 49 48 48 47 43 43 47 50 48 50 52 53
45 45 47 45 45 43 42 43 38 34 34 34 34 35 33 32 30 29 30 33 33 34 36 38 37 34 35 39 40 41 45 46 46 48 46 48 41 48 50 51 56 60 58 58
48 50 49 48 48 45 46 43 38 34 34 33 33 33 32 31 31 33 35 35 34 35 35 36 35 34 37 40 43 42 40 41 39 42 46 46 50 49 56 57 57 61 64 63
51 51 50 48 49 45 45 42 35 35 35 35 36 35 33 30 32 33 32 34 41 42 38 40 36 34 36 40 42 41 42 43 44 42 44 49 51 54 59 60 65 65 69 72
51 52 52 52 48 45 45 42 36 37 36 38 36 36 37 35 33 33 35 41 45 45 46 46 48 48 48 49 46 50 48 49 49 53 53 52 55 57 59 64 67 69 73 74
51 53 52 52 50 48 44 43 38 36 37 38 39 39 40 38 35 34 39 42 45 49 54 57 59 59 59 57 64 63 60 59 60 60 59 61 56 53 54 55 59 68 73 79
52 52 51 50 51 47 43 40 38 34 36 37 39 40 39 38 38 37 37 40 46 50 54 56 56 57 60 63 65 65 63 59 55 54 54 54 54 54 53 51 52 52 58 65
52 52 50 50 50 45 43 39 37 37 35 36 37 38 39 40 41 40 43 42 45 50 55 55 56 58 60 63 60 57 55 55 55 56 56 55 54 54 52 51 51 52 55 58
54 53 53 54 51 48 45 41 38 38 35 34 36 38 41 43 42 42 45 49 53 52 52 52 52 53 56 58 58 60 58 56 56 55 55 56 55 53 53 53 55 56 57 59
46 53 54 50 45 47 47 46 42 38 37 35 33 36 40 39 42 42 43 48 48 44 45 48 53 57 60 62 63 63 62 59 57 57 56 55 55 55 56 58 60 62 64 65
47 50 51 49 47 48 47 45 41 37 31 28 27 29 31 36 41 44 43 42 44 48 52 57 60 64 66 66 65 63 61 59 58 58 58 58 59 60 62 64 66 68 69 69
Wind_Direction
268 264 263 263 261 257 255 257 260 261 263 247 222 212 208 215 221 229 240 248 256 257 254 246 260 271 263 267 255 313 338 37 48 101 119 177 239 243 244 246 241 246 237 250
262 263 262 260 257 252 251 249 251 252 252 240 228 220 218 218 223 226 235 249 251 251 254 253 258 267 274 272 270 272 296 292 282 188 163 226 250 232 265 262 254 236 234 242
250 267 263 254 253 251 245 241 239 239 241 233 231 229 232 227 229 236 242 241 245 251 254 254 256 261 268 270 265 272 271 273 281 269 268 316 183 210 242 255 238 227 217 191
253 264 264 259 255 249 230 237 240 234 238 236 236 230 234 236 239 242 248 250 248 251 257 254 253 260 265 266 258 273 266 261 272 290 315 303 324 315 335 248 245 238 214 222
261 261 264 270 259 247 225 233 242 243 238 241 246 237 239 240 243 246 247 247 248 251 256 253 252 252 260 261 253 264 260 264 275 277 280 299 315 319 304 312 224 238 227 234
267 266 263 260 258 243 232 231 236 240 247 245 240 244 247 250 247 247 249 251 244 247 254 254 255 254 259 256 252 252 257 259 262 266 279 293 301 303 310 317 319 235 217 215
268 271 269 256 247 235 234 236 242 248 252 253 244 251 251 248 247 249 249 252 256 255 256 253 256 259 258 255 257 254 253 253 259 266 273 285 288 297 297 308 312 321 253 216
264 267 262 250 248 240 235 237 244 252 255 259 249 242 248 252 248 248 250 254 257 258 259 261 257 257 252 252 252 259 255 259 257 262 269 276 299 296 298 302 305 295 281 238
261 259 255 245 241 234 235 237 235 240 247 250 246 242 247 252 255 253 253 253 257 260 260 262 265 267 260 249 250 249 254 258 261 260 259 264 271 286 290 289 283 270 283 227
255 246 249 249 248 241 243 238 242 245 250 251 252 250 248 248 258 264 266 265 265 267 266 265 266 267 267 263 253 251 253 256 261 257 252 254 258 267 282 279 269 270 243 232
250 240 235 233 237 240 244 245 246 247 248 251 254 254 255 255 257 262 264 266 265 266 266 265 264 264 264 266 267 263 259 254 253 254 255 247 254 251 254 255 248 253 254 246
245 235 235 235 239 242 249 255 254 255 260 260 258 261 263 263 261 260 261 263 264 263 264 266 266 268 269 269 269 268 265 262 258 256 259 256 252 256 253 247 248 246 248 258
238 239 239 242 244 249 253 254 258 262 261 260 263 266 272 272 270 270 271 269 267 268 267 267 269 270 271 270 270 270 271 269 267 264 260 256 255 256 252 247 255 250 251 252
235 237 239 243 249 253 256 261 263 266 267 267 267 270 273 275 275 274 273 269 266 265 265 267 270 271 272 272 273 274 274 275 276 273 268 266 262 257 257 250 254 255 251 250
235 237 243 246 251 254 259 261 264 268 272 274 273 270 274 275 277 276 272 268 266 265 265 265 266 267 270 270 271 273 276 277 277 278 280 275 273 261 249 255 247 248 259 248
235 237 242 248 252 258 262 265 270 272 274 276 274 269 272 275 272 271 271 267 265 263 261 263 268 273 276 277 276 276 274 273 274 271 273 270 270 263 258 256 251 247 255 255
233 237 243 248 253 257 263 266 269 271 273 273 274 273 273 275 274 270 268 270 268 270 269 273 275 275 275 280 279 280 282 280 274 270 268 264 258 259 254 250 249 249 250 257
235 238 242 247 254 258 262 265 268 269 271 274 275 276 272 272 272 270 271 274 267 264 271 264 272 279 286 286 282 281 280 282 286 284 277 266 263 254 245 244 248 252 251 251
236 239 244 246 250 256 261 264 267 265 266 267 269 273 272 271 271 269 264 253 259 270 267 265 270 282 288 288 281 285 279 271 273 278 279 272 268 266 263 249 246 249 253 254
237 239 242 246 250 253 258 262 263 264 265 267 269 272 273 272 270 270 261 255 260 264 270 273 276 277 280 287 282 280 276 270 270 271 272 274 268 265 263 260 254 252 251 254
238 241 243 246 251 253 254 260 261 261 269 270 271 273 277 282 280 277 272 268 270 271 271 277 280 282 280 281 283 286 285 282 279 277 277 277 273 268 264 263 260 254 253 252
237 240 244 248 251 252 257 257 261 263 265 268 271 277 279 282 283 282 282 279 276 276 279 283 283 283 284 282 285 287 289 287 285 284 281 277 275 277 279 276 271 268 264 260
236 241 245 245 250 252 252 257 260 264 264 268 274 277 280 282 277 276 277 277 285 284 286 284 285 285 284 286 289 292 292 290 289 287 285 284 282 280 278 275 273 270 268 267
235 238 243 244 248 251 254 254 257 264 270 271 274 275 279 286 292 291 287 284 287 286 287 287 292 293 291 292 292 294 294 292 290 287 284 283 280 277 275 274 274 273 273 274
237 241 239 243 248 251 251 256 258 263 269 276 281 276 287 285 289 286 285 285 290 296 297 295 292 292 293 294 295 294 293 291 289 287 285 284 282 281 281 281 281 281 281 281
230 243 243 244 246 249 252 252 259 266 278 276 277 280 280 277 284 289 292 295 295 296 296 297 297 298 297 296 295 294 292 291 289 288 287 286 285 284 284 284 284 284 285 284
Height
10946 10945 10945 10947 10949 10951 10952 10955 10956 10956 10956 10955 10956 10957 10958 10959 10961 10963 10964 10965 10964 10965 10966 10968 10968 10967 10967 10967 10967 10969 10968 10967 10967 10966 10967 10966 10966 10965 10966 10966 10967 10967 10967 10965
10941 10941 10939 10940 10943 10945 10948 10951 10952 10952 10952 10951 10953 10954 10954 10955 10957 10958 10960 10961 10961 10962 10964 10966 10964 10963 10961 10963 10962 10966 10967 10967 10966 10965 10965 10963 10962 10964 10964 10963 10963 10963 10963 10964
10937 10936 10934 10935 10936 10939 10943 10945 10947 10948 10948 10949 10950 10951 10952 10953 10955 10956 10956 10956 10957 10959 10960 10962 10960 10961 10961 10961 10961 10961 10965 10965 10965 10964 10964 10961 10958 10959 10959 10960 10959 10958 10959 10959
10934 10932 10930 10931 10933 10936 10937 10938 10942 10944 10945 10947 10948 10948 10948 10949 10951 10951 10952 10954 10955 10956 10955 10955 10955 10956 10957 10958 10958 10958 10961 10962 10960 10963 10962 10961 10961 10960 10957 10954 10955 10956 10956 10955
10930 10927 10928 10928 10930 10932 10934 10933 10936 10939 10942 10944 10944 10945 10944 10945 10945 10947 10948 10951 10952 10951 10949 10949 10950 10953 10953 10953 10955 10955 10956 10956 10957 10957 10958 10957 10958 10958 10955 10951 10948 10947 10950 10951
10923 10922 10924 10926 10926 10928 10929 10930 10930 10932 10934 10938 10940 10937 10938 10939 10941 10942 10942 10944 10946 10946 10945 10945 10948 10949 10949 10950 10951 10951 10950 10950 10951 10952 10953 10954 10954 10952 10951 10949 10948 10945 10944 10943
10918 10917 10919 10921 10921 10922 10923 10925 10928 10929 10929 10930 10933 10929 10931 10932 10935 10936 10938 10939 10939 10940 10940 10942 10943 10945 10946 10946 10947 10948 10946 10946 10946 10947 10949 10949 10947 10947 10946 10946 10945 10943 10943 10942
10912 10913 10914 10914 10915 10917 10918 10921 10923 10923 10925 10926 10925 10924 10924 10924 10928 10929 10932 10932 10933 10934 10934 10935 10938 10938 10939 10940 10941 10942 10942 10941 10940 10941 10942 10942 10942 10939 10940 10940 10939 10937 10937 10937
10907 10909 10909 10909 10908 10910 10911 10914 10915 10917 10918 10919 10919 10918 10916 10918 10919 10923 10925 10926 10929 10929 10929 10930 10931 10931 10931 10932 10933 10934 10935 10935 10935 10935 10935 10936 10936 10935 10934 10933 10933 10931 10932 10932
10901 10904 10904 10903 10904 10905 10905 10908 10909 10911 10912 10912 10912 10911 10912 10915 10912 10916 10919 10921 10922 10922 10923 10924 10924 10924 10923 10924 10925 10925 10926 10926 10927 10925 10926 10929 10930 10930 10929 10928 10929 10929 10929 10924
10895 10897 10897 10898 10898 10899 10901 10903 10904 10905 10905 10905 10905 10903 10906 10909 10909 10911 10912 10913 10914 10914 10914 10915 10914 10912 10912 10912 10913 10913 10914 10915 10915 10915 10917 10920 10919 10919 10920 10919 10923 10923 10924 10919
10888 10890 10891 10892 10891 10893 10896 10898 10898 10898 10898 10896 10896 10896 10900 10903 10903 10902 10903 10904 10904 10905 10905 10903 10900 10901 10902 10901 10901 10901 10901 10901 10904 10905 10907 10907 10908 10909 10910 10909 10915 10916 10913 10912
10880 10881 10884 10883 10885 10888 10890 10891 10891 10891 10891 10890 10890 10889 10892 10896 10896 10895 10895 10895 10894 10894 10892 10890 10890 10890 10889 10888 10887 10886 10886 10886 10889 10891 10892 10894 10895 10898 10899 10899 10900 10902 10905 10903
10871 10873 10874 10874 10880 10881 10882 10884 10884 10884 10884 10884 10884 10883 10886 10889 10888 10887 10887 10885 10884 10882 10882 10880 10879 10878 10878 10877 10875 10875 10874 10873 10873 10876 10879 10880 10882 10884 10886 10887 10886 10889 10891 10891
10861 10864 10864 10867 10870 10871 10873 10875 10875 10877 10878 10878 10877 10875 10878 10880 10880 10879 10877 10875 10874 10874 10873 10871 10869 10869 10869 10867 10865 10864 10862 10862 10861 10861 10862 10864 10866 10867 10870 10873 10872 10872 10874 10876
10849 10853 10855 10858 10860 10862 10864 10865 10868 10870 10870 10870 10869 10868 10870 10871 10872 10870 10868 10865 10865 10864 10863 10861 10860 10859 10858 10857 10855 10853 10851 10849 10849 10848 10851 10850 10850 10851 10854 10856 10857 10858 10858 10858
10839 10842 10844 10848 10850 10852 10854 10855 10860 10861 10861 10861 10860 10860 10862 10862 10861 10860 10858 10856 10857 10855 10854 10853 10852 10850 10849 10847 10845 10842 10839 10836 10835 10835 10834 10836 10837 10838 10838 10839 10841 10841 10841 10841
10829 10830 10834 10838 10839 10843 10843 10846 10851 10853 10853 10853 10853 10853 10853 10853 10852 10850 10849 10848 10847 10846 10847 10847 10845 10842 10839 10837 10834 10831 10827 10824 10822 10820 10818 10818 10819 10823 10824 10822 10821 10823 10823 10824
10818 10821 10824 10828 10827 10832 10833 10837 10845 10845 10846 10845 10843 10844 10844 10844 10842 10841 10840 10839 10836 10836 10838 10838 10836 10834 10830 10826 10821 10817 10815 10813 10810 10807 10805 10802 10801 10800 10801 10803 10804 10803 10803 10803
10808 10810 10813 10815 10820 10823 10824 10829 10836 10835 10836 10834 10835 10835 10834 10834 10833 10831 10831 10830 10828 10827 10825 10825 10823 10821 10818 10814 10809 10806 10801 10798 10795 10793 10791 10788 10785 10783 10782 10782 10781 10782 10782 10781
10798 10800 10804 10805 10810 10813 10817 10820 10825 10827 10827 10826 10825 10824 10823 10823 10823 10822 10821 10820 10819 10816 10815 10812 10808 10806 10802 10797 10793 10790 10786 10782 10777 10774 10771 10768 10766 10764 10763 10761 10760 10761 10760 10760
10787 10790 10795 10799 10800 10804 10808 10812 10815 10819 10818 10818 10818 10817 10816 10815 10814 10812 10812 10810 10808 10804 10802 10799 10794 10789 10784 10779 10776 10771 10767 10763 10759 10755 10751 10748 10745 10742 10739 10738 10737 10734 10733 10735
10777 10782 10786 10787 10790 10797 10798 10803 10806 10808 10810 10810 10810 10809 10809 10807 10805 10803 10802 10799 10796 10791 10786 10782 10778 10773 10768 10764 10759 10754 10749 10744 10740 10736 10732 10729 10726 10724 10722 10720 10718 10716 10714 10714
10767 10771 10772 10776 10783 10786 10790 10793 10796 10797 10799 10801 10801 10800 10799 10797 10795 10792 10790 10787 10782 10777 10774 10769 10764 10759 10754 10748 10743 10738 10733 10729 10724 10720 10717 10714 10711 10708 10705 10702 10700 10698 10697 10693
10758 10762 10763 10767 10773 10777 10781 10784 10786 10790 10791 10792 10791 10790 10789 10787 10784 10780 10777 10773 10769 10766 10761 10756 10750 10745 10738 10731 10725 10720 10715 10710 10706 10703 10699 10695 10693 10689 10685 10681 10678 10674 10671 10667
10751 10750 10754 10760 10763 10767 10770 10774 10778 10780 10783 10783 10782 10781 10780 10777 10774 10769 10765 10761 10758 10752 10747 10742 10735 10726 10718 10711 10705 10700 10694 10690 10686 10682 10679 10676 10672 10668 10664 10659 10654 10650 10644 10640